Weather History for Superior, WI

Change the Weather History Date:

Thursday, February 21, 2013

  Actual Average Record
Temperature  
Mean Temperature 7 °F -  
Max Temperature 24 °F 30 °F 30 °F (2014)
Min Temperature -10 °F 12 °F 8 °F (2014)
Degree Days  
Heating Degree Days 58    
Moisture  
Dew Point 7 °F    
Average Humidity 80    
Maximum Humidity 91    
Minimum Humidity 68    
Precipitation  
Precipitation 0.00 in - - ()
Sea Level Pressure  
Sea Level Pressure 30.39 in    
Wind  
Wind Speed 6 mph (East)    
Max Wind Speed 20 mph    
Max Gust Speed 29 mph    
Visibility 10 miles    
Events Snow    
Averages and records for this station are not official NWS values.
T = Trace of Precipitation, MM = Missing Value Source: NWS Daily Summary

Daily Weather History Graph

Daily Weather History Graph

Search for Another Location

Airport:

Trip Planner

Search our weather history database for the weather conditions in past years. The results will help you decide how hot, cold, wet, or windy it might be!

Date:

Astronomy

Feb. 21, 2013 Rise Set
Actual Time 7:01 AM CST 5:42 PM CST
Civil Twilight 6:31 AM CST 6:13 PM CST
Nautical Twilight 5:55 AM CST 6:48 PM CST
Astronomical Twilight 5:20 AM CST 7:23 PM CST
Moon 1:48 PM CST (2/21) 4:16 AM CST (2/21)
Length of Visible Light 11h 42m
Length of Day
10h 41m
Waxing Gibbous, 84% of the Moon is Illuminated
Feb 21
Waxing Gibbous
Feb 25
Full
Mar 4
Last Quarter
Mar 11
New
Mar 19
First Quarter

Hourly Weather History & Observations

Time (CST) Temp. Windchill Dew Point Humidity Pressure Visibility Wind Dir Wind Speed Gust Speed Precip Events Conditions
12:15 AM -4.2 °F - -8.9 °F 80% 30.45 in 10.0 mi Calm Calm - N/A   Clear
12:35 AM -5.4 °F - -9.2 °F 84% 30.46 in 10.0 mi Calm Calm - N/A   Clear
12:55 AM -3.8 °F -12.2 °F -6.9 °F 87% 30.46 in 10.0 mi WSW 3.5 mph - N/A   Clear
1:15 AM -5.3 °F -13.8 °F -8.5 °F 86% 30.47 in 10.0 mi WSW 3.5 mph - N/A   Clear
1:35 AM -4.5 °F -13.0 °F -8.0 °F 85% 30.47 in 10.0 mi West 3.5 mph - N/A   Clear
1:55 AM -5.8 °F - -10.1 °F 82% 30.48 in 10.0 mi Calm Calm - N/A   Clear
2:15 AM -7.1 °F - -11.0 °F 83% 30.48 in 10.0 mi Calm Calm - N/A   Clear
2:35 AM -8.1 °F - -12.6 °F 81% 30.48 in 10.0 mi Calm Calm - N/A   Clear
2:55 AM -8.1 °F - -12.5 °F 81% 30.48 in 10.0 mi Calm Calm - N/A   Clear
3:15 AM -7.4 °F -16.3 °F -11.2 °F 84% 30.46 in 10.0 mi SE 3.5 mph - N/A   Clear
3:35 AM -7.8 °F - -11.6 °F 84% 30.46 in 10.0 mi Calm Calm - N/A   Clear
3:55 AM -6.9 °F - -10.8 °F 83% 30.46 in 10.0 mi Calm Calm - N/A   Clear
4:15 AM -6.0 °F -14.7 °F -10.1 °F 82% 30.48 in 10.0 mi SW 3.5 mph - N/A   Clear
4:35 AM -8.9 °F - -13.4 °F 81% 30.48 in 10.0 mi Calm Calm - N/A   Clear
4:55 AM -8.7 °F -17.8 °F -12.8 °F 82% 30.49 in 10.0 mi WSW 3.5 mph - N/A   Clear
5:15 AM -7.4 °F -16.3 °F -11.7 °F 81% 30.49 in 10.0 mi SW 3.5 mph - N/A   Clear
6:15 AM -9.4 °F -18.6 °F -13.9 °F 81% 30.49 in 10.0 mi SW 3.5 mph - N/A   Mostly Cloudy
6:35 AM -10.3 °F -19.6 °F -14.8 °F 81% 30.48 in 10.0 mi South 3.5 mph - N/A   Overcast
6:55 AM -9.6 °F - -13.9 °F 81% 30.46 in 10.0 mi Calm Calm - N/A   Overcast
7:15 AM -7.8 °F - -11.9 °F 82% 30.44 in 10.0 mi Calm Calm - N/A   Overcast
7:35 AM -3.8 °F -12.2 °F -7.6 °F 84% 30.41 in 10.0 mi NE 3.5 mph - N/A   Overcast
7:55 AM -1.8 °F - -6.0 °F 83% 30.41 in 5.0 mi Calm Calm - N/A Snow Light Snow
8:15 AM 2.3 °F - -1.5 °F 84% 30.41 in 7.0 mi Calm Calm - N/A Snow Light Snow
8:35 AM 3.7 °F -10.6 °F -0.6 °F 82% 30.46 in 7.0 mi WSW 9.2 mph - N/A Snow Light Snow
8:55 AM 3.4 °F -10.0 °F -0.6 °F 84% 30.51 in 10.0 mi SW 8.1 mph - N/A   Overcast
9:15 AM 6.8 °F - 2.3 °F 82% 30.52 in 10.0 mi Calm Calm - N/A Snow Light Snow
9:35 AM 8.1 °F 1.4 °F 3.9 °F 83% 30.49 in 7.0 mi NW 3.5 mph - N/A Snow Light Snow
9:55 AM 10.4 °F 4.0 °F 5.9 °F 82% 30.49 in 10.0 mi North 3.5 mph - N/A Snow Light Snow
10:15 AM 17.6 °F 6.4 °F 10.4 °F 73% 30.48 in 10.0 mi ESE 9.2 mph - N/A Snow Light Snow
10:35 AM 19.0 °F 7.5 °F 11.1 °F 71% 30.47 in 10.0 mi East 10.4 mph - N/A   Overcast
10:55 AM 19.4 °F 7.2 °F 10.9 °F 70% 30.45 in 10.0 mi East 11.5 mph - N/A Snow Light Snow
11:15 AM 19.4 °F 7.9 °F 11.3 °F 71% 30.45 in 10.0 mi East 10.4 mph - N/A Snow Light Snow
11:35 AM 20.1 °F 8.1 °F 12.0 °F 71% 30.46 in 10.0 mi East 11.5 mph 17.3 mph N/A   Overcast
11:55 AM 21.0 °F 8.6 °F 12.0 °F 68% 30.46 in 10.0 mi East 12.7 mph 17.3 mph N/A   Overcast
12:15 PM 21.0 °F 9.3 °F 12.2 °F 69% 30.45 in 10.0 mi NE 11.5 mph - N/A   Overcast
12:35 PM 20.7 °F 9.5 °F 11.8 °F 69% 30.44 in 10.0 mi ENE 10.4 mph - N/A   Overcast
12:55 PM 21.7 °F 12.3 °F 12.7 °F 68% 30.43 in 10.0 mi East 8.1 mph 17.3 mph N/A   Overcast
1:15 PM 22.8 °F 12.2 °F 14.0 °F 69% 30.42 in 10.0 mi ENE 10.4 mph 17.3 mph N/A   Overcast
1:35 PM 23.0 °F 12.4 °F 14.2 °F 69% 30.41 in 10.0 mi ENE 10.4 mph 16.1 mph N/A   Overcast
1:55 PM 22.1 °F 10.6 °F 14.5 °F 73% 30.40 in 10.0 mi ENE 11.5 mph 16.1 mph N/A   Overcast
2:15 PM 22.6 °F 10.7 °F 14.0 °F 69% 30.39 in 10.0 mi ENE 12.7 mph 18.4 mph N/A   Overcast
2:35 PM 23.0 °F 12.4 °F 14.7 °F 71% 30.38 in 10.0 mi ENE 10.4 mph 20.7 mph N/A   Overcast
2:55 PM 22.8 °F 9.4 °F 14.9 °F 72% 30.36 in 10.0 mi ENE 16.1 mph 21.9 mph N/A   Overcast
3:15 PM 22.8 °F 11.5 °F 15.6 °F 74% 30.36 in 10.0 mi ENE 11.5 mph 18.4 mph N/A   Overcast
3:35 PM 22.8 °F 11.5 °F 15.8 °F 74% 30.36 in 10.0 mi ENE 11.5 mph - N/A   Overcast
3:55 PM 23.0 °F 9.6 °F 15.8 °F 74% 30.36 in 10.0 mi ENE 16.1 mph 19.6 mph N/A   Overcast
4:15 PM 22.6 °F 10.7 °F 16.5 °F 77% 30.36 in 10.0 mi ENE 12.7 mph 23.0 mph N/A   Overcast
4:35 PM 22.5 °F 9.9 °F 17.2 °F 80% 30.36 in 10.0 mi ENE 13.8 mph 20.7 mph N/A   Overcast
4:55 PM 22.1 °F 9.5 °F 17.2 °F 82% 30.36 in 10.0 mi ENE 13.8 mph 20.7 mph N/A   Overcast
5:15 PM 22.1 °F 11.3 °F 16.5 °F 79% 30.36 in 10.0 mi East 10.4 mph 20.7 mph N/A   Overcast
5:35 PM 22.1 °F 10.0 °F 17.1 °F 81% 30.34 in 10.0 mi East 12.7 mph - N/A   Overcast
5:55 PM 22.1 °F 10.0 °F 17.6 °F 83% 30.34 in 10.0 mi East 12.7 mph 20.7 mph N/A   Overcast
6:15 PM 22.3 °F 9.2 °F 17.6 °F 82% 30.34 in 10.0 mi East 15.0 mph 21.9 mph N/A   Overcast
6:35 PM 22.5 °F 8.5 °F 18.1 °F 83% 30.32 in 10.0 mi East 17.3 mph 23.0 mph N/A   Overcast
6:55 PM 22.6 °F 8.7 °F 18.9 °F 85% 30.32 in 10.0 mi East 17.3 mph 20.7 mph N/A   Overcast
7:15 PM 22.8 °F 11.5 °F 18.9 °F 85% 30.31 in 10.0 mi East 11.5 mph 19.6 mph N/A   Overcast
7:35 PM 23.4 °F 8.8 °F 19.2 °F 84% 30.29 in 10.0 mi East 19.6 mph 25.3 mph N/A   Overcast
7:55 PM 23.5 °F 12.4 °F 20.1 °F 87% 30.28 in 10.0 mi East 11.5 mph 23.0 mph N/A   Overcast
8:15 PM 23.9 °F 9.9 °F 20.3 °F 86% 30.27 in 10.0 mi East 18.4 mph 24.2 mph N/A   Overcast
8:35 PM 24.3 °F 11.2 °F 20.8 °F 87% 30.27 in 10.0 mi East 16.1 mph 28.8 mph N/A   Overcast
8:55 PM 23.7 °F 10.5 °F 20.3 °F 87% 30.26 in 10.0 mi East 16.1 mph 25.3 mph N/A   Overcast
9:15 PM 23.7 °F 11.5 °F 20.7 °F 88% 30.26 in 10.0 mi East 13.8 mph 19.6 mph N/A   Overcast
9:35 PM 23.7 °F 10.1 °F 21.2 °F 90% 30.24 in 10.0 mi East 17.3 mph 25.3 mph N/A   Overcast
9:55 PM 23.9 °F - 21.6 °F 91% 30.23 in 10.0 mi Calm Calm - N/A   Overcast
10:15 PM 24.4 °F 11.9 °F 22.1 °F 91% 30.22 in 10.0 mi East 15.0 mph 27.6 mph N/A   Overcast
10:35 PM 24.4 °F 11.9 °F 21.7 °F 89% 30.21 in 10.0 mi East 15.0 mph 23.0 mph N/A   Overcast
10:55 PM 24.4 °F 11.5 °F 22.1 °F 91% 30.20 in 10.0 mi East 16.1 mph 24.2 mph N/A   Overcast
11:15 PM 24.6 °F 11.7 °F 21.7 °F 89% 30.19 in 10.0 mi East 16.1 mph 20.7 mph N/A   Overcast
11:35 PM 24.3 °F 10.4 °F 20.5 °F 85% 30.19 in 10.0 mi East 18.4 mph 25.3 mph N/A   Overcast
11:55 PM 23.9 °F 11.2 °F 19.4 °F 83% 30.18 in 10.0 mi East 15.0 mph 24.2 mph N/A   Overcast